Dewpoint
48 29 22 27 24 23 20 18 18 20 21 35 41 40 41 49 51 54 56 55 61 65 67 68 71 72 73 73 72 72 72 72 72 72 72 72 72 71 71 70 70 70 68 67 67 65 65 64 63
27 19 23 24 23 20 19 20 19 20 27 38 41 41 43 51 55 57 57 57 62 64 66 66 71 72 72 72 72 72 72 72 72 72 72 72 72 71 71 70 70 69 67 67 66 64 64 62 61
27 19 22 22 20 18 17 22 20 22 24 34 41 45 48 56 56 57 59 59 62 64 64 68 71 71 71 71 71 71 71 71 71 71 71 71 72 71 70 69 69 68 66 65 64 64 62 61 62
11 19 22 21 20 20 19 20 21 22 25 34 36 44 57 61 59 59 60 60 61 62 65 70 70 71 71 71 71 71 71 71 71 71 71 71 71 71 70 69 68 66 65 64 63 62 61 60 61
10 15 18 18 18 19 20 21 23 23 23 24 26 39 56 61 61 61 60 60 61 61 67 68 70 70 71 71 71 71 71 71 71 71 70 70 70 70 69 68 67 65 64 63 62 61 60 60 61
8 7 10 9 11 11 15 22 23 25 26 27 27 28 60 64 61 60 60 61 61 65 66 67 71 70 70 71 71 71 71 71 71 70 70 70 70 69 68 67 66 64 62 62 61 60 60 60 59
9 6 4 2 -2 -2 11 21 22 24 24 23 25 27 59 62 61 60 60 63 63 66 66 66 67 69 70 70 70 70 70 70 70 69 69 69 68 68 67 66 64 63 62 61 60 60 59 59 60
4 1 0 -3 -6 -4 1 9 17 19 22 24 26 27 50 62 62 60 64 66 68 68 67 67 66 65 66 69 70 70 70 69 69 69 69 68 67 67 66 65 64 63 61 60 60 59 59 59 59
4 2 -1 -7 -6 -6 5 10 14 17 13 27 30 42 61 63 62 62 65 66 67 67 67 67 66 66 64 64 69 70 70 69 68 68 68 66 65 64 64 64 64 61 62 60 60 59 59 59 57
1 -1 -6 -7 -5 -6 -1 6 5 14 11 34 46 53 62 62 63 63 63 64 65 66 66 68 67 65 65 60 66 65 66 64 64 64 66 63 65 64 62 62 63 62 61 60 60 60 59 57 49
4 -1 -5 -6 -1 4 2 6 8 6 14 28 37 52 60 62 62 62 62 63 64 65 66 66 68 68 64 61 60 60 61 61 63 65 64 66 64 64 62 61 59 59 59 53 55 55 52 50 49
3 2 -1 -5 -3 2 2 3 3 7 10 26 34 53 60 62 62 62 61 62 62 64 64 66 65 67 67 61 59 58 57 58 61 61 63 65 64 63 62 60 59 60 54 53 52 49 52 52 52
2 7 -0 -1 1 3 1 -1 4 3 8 23 26 46 58 62 63 63 61 63 62 62 64 66 66 66 63 64 59 59 59 58 61 61 63 62 63 63 62 62 61 59 54 51 50 51 51 51 51
6 5 -0 2 4 5 3 1 3 8 10 10 12 26 47 53 58 63 63 62 63 64 64 66 66 66 64 63 65 64 64 61 59 59 63 62 64 64 62 61 61 57 53 50 48 49 50 49 50
6 8 6 3 3 3 4 3 1 1 10 10 9 13 26 46 52 59 62 63 63 63 65 65 66 66 66 65 64 64 64 59 57 57 64 64 64 64 63 61 60 56 54 52 50 49 49 48 46
10 9 4 -1 0 2 3 -1 -4 -0 3 6 6 8 15 27 44 51 60 63 64 64 63 66 63 64 65 65 63 62 61 59 57 60 63 64 63 64 64 61 61 58 56 52 49 47 46 46 44
12 4 4 3 -2 0 4 -1 -5 8 8 7 6 10 12 23 36 46 55 62 64 64 65 64 65 64 64 65 64 63 63 59 57 60 62 64 62 64 63 61 60 60 57 54 50 48 46 43 41
5 2 3 3 1 2 -0 1 1 9 7 9 7 10 16 16 26 44 53 61 63 64 65 64 64 65 65 64 63 62 62 59 57 58 62 64 61 63 63 62 61 59 57 55 51 50 45 43 42
10 8 4 3 2 5 5 2 -0 8 8 11 10 9 11 17 18 36 52 59 63 64 64 65 65 65 64 63 61 61 61 59 56 57 61 63 62 63 64 62 61 59 58 57 56 51 50 44 44
16 15 11 9 7 8 7 5 1 1 6 7 7 9 10 11 14 23 34 55 63 63 64 65 65 65 65 64 62 61 61 59 56 59 61 63 64 63 62 63 61 59 57 59 57 55 49 46 46
12 14 15 14 12 8 10 12 10 4 8 9 10 12 11 12 15 17 25 43 62 63 64 64 64 65 64 64 63 64 64 59 58 58 60 62 63 64 63 63 61 60 59 57 56 55 54 48 47
-4 3 8 9 13 10 14 11 14 10 11 12 14 16 15 15 15 18 18 31 51 61 64 65 65 64 64 63 63 62 61 58 57 57 61 61 63 64 63 63 62 61 59 57 57 54 55 53 48
-1 -4 3 8 9 14 13 12 13 11 7 11 13 13 16 17 16 18 23 21 37 56 63 65 65 64 63 63 63 63 61 61 61 58 61 63 64 64 64 63 63 62 60 59 58 56 55 54 51
6 2 1 10 14 11 11 12 11 10 10 9 12 14 15 15 16 16 23 26 33 46 59 65 65 64 63 63 63 63 61 61 60 58 58 59 63 64 65 62 62 62 61 59 57 57 55 54 54
15 4 6 8 14 11 10 11 14 12 12 13 16 21 28 30 30 34 31 29 35 44 53 61 64 63 63 62 62 62 62 61 60 59 58 58 62 64 64 62 62 61 62 59 59 58 56 54 55
20 9 4 4 6 8 8 8 9 14 17 28 32 33 34 35 38 39 40 41 41 43 49 59 62 63 63 62 62 61 62 61 59 58 59 58 59 63 63 62 62 62 61 60 58 57 56 55 56
18 15 5 6 21 17 9 12 31 34 35 30 30 31 33 34 35 37 39 42 43 45 48 53 59 62 63 62 62 62 62 62 60 60 59 60 61 61 65 63 62 61 61 59 58 57 58 56 55
24 29 16 16 11 10 9 12 29 33 31 30 31 32 34 34 34 37 38 40 43 45 48 50 55 60 62 62 62 61 62 62 61 60 61 61 61 62 65 64 62 61 60 59 59 59 59 57 55
24 24 21 11 14 19 11 22 34 32 29 29 30 30 31 32 33 35 38 40 42 46 48 50 50 55 61 62 62 62 61 62 61 61 61 62 62 62 63 64 62 61 60 59 59 59 58 57 58
30 24 19 12 15 25 26 24 28 26 26 28 28 28 29 30 32 34 36 39 41 44 47 48 51 51 56 61 62 62 63 62 61 61 62 63 62 62 62 63 63 61 60 60 58 58 58 58 58
Lifted_Index
6 6 5 4 2 1 -0 -0 -0 -0 0 -1 -2 -2 -3 -3 -3 -4 -3 -2 -2 -2 -1 -1 -1 -2 -2 -2 -2 -2 -2 -1 -1 -1 -2 -2 -2 -2 -2 -1 -1 -1 0 1 2 3 4 4 5
7 6 5 3 2 0 -0 -0 -0 0 -0 -1 -2 -2 -3 -4 -4 -4 -3 -3 -2 -2 -1 -1 -1 -2 -2 -2 -2 -2 -2 -1 -1 -1 -2 -2 -2 -2 -2 -1 -1 -0 1 2 3 4 4 5 5
7 6 4 3 1 0 -0 0 0 0 0 -1 -2 -3 -4 -5 -5 -4 -4 -3 -3 -3 -2 -1 -2 -2 -2 -2 -2 -2 -2 -1 -1 -1 -2 -2 -2 -2 -1 -1 -0 1 2 3 4 5 5 6 6
7 6 4 3 1 0 0 0 1 1 1 0 -1 -3 -5 -5 -5 -4 -4 -4 -3 -3 -2 -2 -2 -2 -2 -2 -2 -2 -2 -1 -1 -1 -1 -2 -2 -1 -1 0 1 2 3 4 5 5 6 6 6
7 5 4 2 1 1 0 1 2 2 2 2 0 -2 -5 -6 -5 -4 -4 -4 -4 -3 -3 -2 -2 -2 -2 -2 -2 -2 -2 -1 -1 -1 -1 -1 -1 -0 0 1 2 3 4 5 5 6 6 6 6
6 5 3 2 1 1 1 2 3 3 2 2 2 -1 -5 -6 -5 -4 -4 -4 -4 -4 -3 -2 -2 -2 -2 -2 -2 -2 -1 -1 -1 -1 -1 -0 -0 1 1 2 3 4 4 5 6 6 7 7 6
6 5 3 1 0 0 1 3 3 3 3 3 2 -0 -4 -6 -6 -5 -4 -4 -4 -4 -3 -2 -2 -1 -1 -1 -1 -1 -1 -1 -1 -0 -0 0 1 1 2 3 4 4 5 5 6 6 7 7 7
6 5 3 2 1 1 2 4 5 4 4 3 2 -0 -4 -6 -5 -5 -5 -5 -4 -4 -4 -3 -2 -1 -1 -1 -1 -1 -1 -1 -0 0 0 1 1 2 3 3 4 5 5 5 6 6 7 7 7
7 5 4 2 2 2 3 5 6 5 5 3 1 -2 -4 -6 -5 -5 -5 -5 -5 -4 -4 -3 -3 -2 -1 -1 -1 -1 -1 -0 0 0 1 1 2 2 3 4 4 5 5 6 6 6 7 7 7
7 6 4 3 3 3 4 5 6 6 5 3 0 -3 -5 -6 -5 -5 -5 -5 -5 -5 -4 -4 -3 -2 -1 -0 -0 -0 0 0 1 1 1 1 2 2 3 4 5 5 6 6 6 6 7 7 7
7 6 5 4 5 5 5 6 6 6 6 4 1 -2 -5 -5 -5 -5 -5 -5 -5 -5 -5 -4 -4 -3 -2 -0 1 1 1 1 1 1 1 1 2 3 4 4 5 5 6 6 6 6 7 7 7
7 6 6 6 6 7 6 6 7 7 6 6 4 -1 -4 -5 -5 -5 -5 -5 -5 -5 -5 -4 -4 -3 -2 -1 1 1 2 1 1 1 1 1 2 3 3 4 4 5 6 6 6 7 7 7 7
7 7 7 7 7 8 7 7 7 7 7 8 6 2 -2 -4 -5 -5 -5 -5 -5 -6 -6 -5 -4 -3 -2 -1 -0 1 1 1 1 1 1 1 2 2 3 3 4 4 5 6 7 7 7 7 8
8 8 8 8 8 8 7 7 7 8 8 9 8 6 2 -2 -4 -5 -5 -5 -5 -6 -6 -6 -5 -3 -3 -2 -1 -0 0 1 1 1 1 1 2 2 2 3 3 4 5 6 7 7 8 8 8
9 8 8 8 8 8 7 6 6 7 8 9 9 8 5 2 -1 -3 -4 -5 -5 -5 -6 -6 -5 -4 -3 -2 -1 -1 0 1 2 2 1 1 1 2 2 2 3 4 5 6 7 8 8 8 9
8 8 7 7 7 7 7 6 5 6 8 8 8 8 7 5 1 -2 -4 -4 -5 -5 -5 -5 -5 -4 -3 -2 -1 -0 1 2 2 1 1 1 1 1 2 2 3 3 4 5 6 8 8 9 10
7 6 6 6 6 7 7 6 5 6 7 7 8 8 8 7 4 0 -2 -4 -4 -4 -5 -5 -5 -4 -3 -3 -2 -0 1 2 2 2 1 1 1 1 1 2 2 3 4 5 6 7 9 10 11
5 5 5 4 5 6 7 6 6 7 7 7 7 8 8 7 5 2 -1 -3 -4 -4 -4 -4 -4 -4 -4 -3 -2 -1 0 1 2 2 1 1 1 1 1 2 2 3 3 4 5 7 8 10 11
5 5 4 4 4 6 7 6 6 6 7 7 7 7 8 8 7 4 0 -3 -4 -4 -4 -4 -4 -4 -4 -3 -2 -1 0 1 1 1 1 1 1 1 1 1 2 3 3 4 5 6 7 9 10
6 5 5 4 4 5 7 6 5 5 6 7 7 7 7 8 7 6 3 -1 -4 -4 -4 -4 -4 -4 -4 -3 -1 -0 -0 0 1 1 1 1 0 0 1 1 2 2 3 3 4 5 6 7 9
6 6 5 4 3 4 5 5 5 5 6 6 6 7 7 7 7 7 6 2 -2 -4 -4 -4 -4 -3 -3 -3 -1 -0 -0 -0 0 0 0 0 0 0 0 1 1 2 2 3 3 4 4 5 6
6 6 5 3 2 1 2 3 4 4 5 5 6 6 6 7 7 7 7 4 -0 -3 -4 -4 -4 -3 -3 -3 -2 -1 -0 0 -0 -0 -0 -0 -0 -0 -0 0 1 1 1 2 2 3 3 4 4
5 5 4 3 1 -0 0 1 2 2 3 4 5 5 6 6 6 7 7 5 2 -2 -4 -4 -4 -3 -3 -3 -2 -2 -1 -0 -0 -0 -1 -1 -1 -1 -0 0 1 1 1 1 2 2 3 3 4
3 3 3 2 0 -0 -0 -0 0 1 1 3 4 5 5 5 6 6 6 6 4 0 -3 -4 -4 -3 -3 -3 -2 -2 -2 -1 -0 -0 -1 -1 -2 -1 -0 0 0 0 0 0 1 2 2 2 3
1 1 1 0 -0 -1 -0 -0 -0 0 1 1 2 4 4 4 4 4 5 4 3 1 -2 -3 -4 -3 -3 -3 -3 -2 -2 -1 -1 -0 -0 -1 -2 -2 -1 0 0 0 0 0 0 1 2 2 2
0 -0 -0 -0 -0 -0 -0 -0 -0 0 0 0 1 3 4 4 4 4 4 3 3 2 -0 -2 -4 -4 -3 -3 -3 -3 -2 -1 -0 -0 -1 -1 -2 -2 -1 -0 0 0 0 0 0 0 1 2 2
0 -0 -0 0 0 -0 -0 -0 -0 0 0 0 2 4 5 5 5 5 4 4 3 3 1 -1 -3 -3 -3 -3 -3 -3 -2 -2 -0 0 -0 -1 -2 -2 -2 -1 -0 -0 -0 -0 -0 0 1 1 1
0 -0 -0 0 0 0 -0 0 1 1 1 1 2 4 5 6 7 6 6 5 4 4 3 1 -1 -3 -3 -3 -2 -3 -3 -2 -1 -0 -0 -1 -2 -2 -2 -2 -1 -0 -0 -1 -0 -0 0 1 1
-0 -0 -0 0 1 0 0 1 3 3 3 3 3 4 5 7 7 7 7 6 6 5 4 2 1 -1 -3 -3 -3 -3 -3 -2 -2 -1 -1 -1 -2 -2 -2 -2 -1 -0 -0 -1 -0 -0 0 0 0
-0 -1 -0 0 1 1 1 2 4 4 4 4 4 4 6 7 8 8 7 7 6 6 4 3 2 0 -2 -3 -3 -3 -3 -3 -2 -1 -1 -1 -2 -2 -2 -2 -1 -1 -0 -0 -0 -0 0 0 0